SBI579 URRP-LTAI

Flight info

Callsign SBI579
Flight time 2h 1m
Altitude 36000
Route DCT
Aircraft A320/M-SDE3FGHIRWY/LB1

Departure

Time 2026-05-04 06:26
Airport Platov International Airport (URRP)

Arrival

Time 2026-05-04 08:28
Airport Antalya International Airport (LTAI)
Time Latitude Longitude Altitude Speed Heading
2026-05-04 06:05 47.48983 39.92855 287 ft 0 kts 144°
2026-05-04 06:18 47.48992 39.92845 290 ft 2 kts 139°
2026-05-04 06:20 47.49033 39.92724 289 ft 0 kts 50°
2026-05-04 06:22 47.49045 39.92748 295 ft 7 kts 54°
2026-05-04 06:22 47.49115 39.92772 287 ft 16 kts 335°
2026-05-04 06:25 47.48838 39.91322 289 ft 56 kts 54°
2026-05-04 06:25 47.49226 39.92133 290 ft 135 kts 54°
2026-05-04 06:26 47.49865 39.93469 628 ft 170 kts 56°
2026-05-04 06:26 47.50268 39.95098 1523 ft 174 kts 91°
2026-05-04 06:26 47.49771 39.96796 2107 ft 198 kts 134°
2026-05-04 06:26 47.48406 39.97608 2515 ft 235 kts 174°
2026-05-04 06:27 47.40918 39.93675 4792 ft 319 kts 198°
2026-05-04 06:28 47.38862 39.92428 5159 ft 320 kts 197°
2026-05-04 06:28 47.36769 39.91241 5865 ft 322 kts 196°
2026-05-04 06:28 47.34655 39.90105 6829 ft 324 kts 196°
2026-05-04 06:28 47.32516 39.88996 7669 ft 328 kts 196°
2026-05-04 06:29 47.30344 39.87886 8523 ft 333 kts 196°
2026-05-04 06:29 47.28136 39.86764 9338 ft 338 kts 196°
2026-05-04 06:29 47.25930 39.85644 10123 ft 343 kts 197°
2026-05-04 06:29 47.23661 39.84490 10852 ft 347 kts 197°
2026-05-04 06:30 47.21365 39.83320 11576 ft 351 kts 198°
2026-05-04 06:30 47.19125 39.81852 12315 ft 356 kts 210°
2026-05-04 06:30 47.17047 39.79833 13085 ft 359 kts 213°
2026-05-04 06:30 47.14970 39.77773 13845 ft 361 kts 214°
2026-05-04 06:31 47.12878 39.75699 14512 ft 364 kts 214°
2026-05-04 06:31 47.10771 39.73614 15172 ft 366 kts 213°
2026-05-04 06:31 47.08649 39.71525 15829 ft 369 kts 213°
2026-05-04 06:31 47.06539 39.69455 16473 ft 371 kts 213°
2026-05-04 06:32 47.04385 39.67341 17116 ft 374 kts 213°
2026-05-04 06:33 46.88866 39.52178 21071 ft 395 kts 213°
2026-05-04 06:34 46.86571 39.49942 21604 ft 398 kts 213°
2026-05-04 06:34 46.84257 39.47687 22132 ft 401 kts 213°
2026-05-04 06:34 46.81927 39.45421 22649 ft 404 kts 213°
2026-05-04 06:34 46.79581 39.43144 23151 ft 407 kts 213°
2026-05-04 06:35 46.77211 39.40845 23649 ft 410 kts 213°
2026-05-04 06:36 46.60375 39.24587 26517 ft 421 kts 212°
2026-05-04 06:37 46.57922 39.22227 26827 ft 424 kts 212°
2026-05-04 06:37 46.55458 39.19861 27175 ft 426 kts 212°
2026-05-04 06:37 46.52978 39.17484 27528 ft 428 kts 212°
2026-05-04 06:37 46.50490 39.15104 27882 ft 429 kts 212°
2026-05-04 06:38 46.48025 39.12745 28219 ft 431 kts 212°
2026-05-04 06:38 46.45520 39.10348 28551 ft 433 kts 212°
2026-05-04 06:40 46.27694 38.93382 30497 ft 445 kts 212°
2026-05-04 06:40 46.25099 38.90930 30722 ft 446 kts 211°
2026-05-04 06:40 46.22503 38.88477 30935 ft 447 kts 211°
2026-05-04 06:40 46.19895 38.86014 31135 ft 448 kts 211°
2026-05-04 06:41 46.17287 38.83548 31328 ft 449 kts 211°
2026-05-04 06:41 46.14673 38.81078 31498 ft 450 kts 211°
2026-05-04 06:41 46.12052 38.78603 31667 ft 451 kts 211°
2026-05-04 06:41 46.09425 38.76128 31812 ft 452 kts 211°
2026-05-04 06:42 46.06825 38.73684 31947 ft 453 kts 211°
2026-05-04 06:42 46.04189 38.71208 32085 ft 453 kts 211°
2026-05-04 06:42 46.01543 38.68727 32216 ft 454 kts 211°
2026-05-04 06:44 45.83030 38.51448 33128 ft 454 kts 210°
2026-05-04 06:44 45.80379 38.48987 33264 ft 454 kts 210°
2026-05-04 06:44 45.77731 38.46531 33401 ft 454 kts 210°
2026-05-04 06:45 45.75079 38.44077 33538 ft 453 kts 210°
2026-05-04 06:45 45.72432 38.41630 33675 ft 453 kts 210°
2026-05-04 06:45 45.69788 38.39182 33809 ft 453 kts 210°
2026-05-04 06:45 45.67145 38.36739 33942 ft 452 kts 210°
2026-05-04 06:46 45.64501 38.34299 34060 ft 452 kts 210°
2026-05-04 06:46 45.61860 38.31866 34172 ft 452 kts 210°
2026-05-04 06:46 45.59251 38.29463 34294 ft 452 kts 210°
2026-05-04 06:46 45.56607 38.27029 34407 ft 452 kts 210°
2026-05-04 06:48 45.38066 38.10063 35255 ft 454 kts 209°
2026-05-04 06:48 45.35402 38.07639 35383 ft 454 kts 210°
2026-05-04 06:49 45.32742 38.05218 35499 ft 454 kts 209°
2026-05-04 06:50 45.14035 37.88254 35865 ft 463 kts 209°
2026-05-04 06:51 45.08591 37.83348 35869 ft 465 kts 209°
2026-05-04 06:51 45.03121 37.78439 35852 ft 466 kts 209°
2026-05-04 06:52 44.97654 37.73535 35847 ft 466 kts 208°
2026-05-04 06:52 44.92219 37.68668 35855 ft 466 kts 208°
2026-05-04 06:53 44.86737 37.63773 35841 ft 466 kts 208°
2026-05-04 06:53 44.81250 37.58884 35852 ft 467 kts 208°
2026-05-04 06:54 44.75759 37.54000 35852 ft 467 kts 208°
2026-05-04 06:54 44.70266 37.49118 35848 ft 467 kts 208°
2026-05-04 06:55 44.64808 37.44275 35841 ft 467 kts 208°
2026-05-04 06:55 44.59301 37.39417 35835 ft 467 kts 208°
2026-05-04 06:57 44.37248 37.20057 35821 ft 470 kts 208°
2026-05-04 06:58 44.31698 37.15213 35824 ft 471 kts 208°
2026-05-04 06:58 44.26182 37.10403 35816 ft 471 kts 208°
2026-05-04 06:59 44.20620 37.05569 35816 ft 471 kts 208°
2026-05-04 06:59 44.15046 37.00753 35814 ft 472 kts 208°
2026-05-04 07:01 43.92729 36.81499 35801 ft 473 kts 208°
2026-05-04 07:02 43.87124 36.76688 35805 ft 474 kts 208°
2026-05-04 07:02 43.81518 36.71894 35802 ft 474 kts 208°
2026-05-04 07:03 43.75942 36.67139 35801 ft 474 kts 208°
2026-05-04 07:03 43.70334 36.62361 35805 ft 474 kts 208°
2026-05-04 07:04 43.64726 36.57579 35800 ft 473 kts 208°
2026-05-04 07:04 43.59120 36.52816 35803 ft 473 kts 208°
2026-05-04 07:05 43.53554 36.48106 35802 ft 473 kts 208°
2026-05-04 07:05 43.47949 36.43374 35801 ft 472 kts 208°
2026-05-04 07:06 43.39546 36.36298 35800 ft 472 kts 208°
2026-05-04 07:07 43.33979 36.31630 35799 ft 472 kts 208°
2026-05-04 07:09 43.11575 36.12927 35800 ft 471 kts 208°
2026-05-04 07:09 43.06008 36.08302 35794 ft 471 kts 208°
2026-05-04 07:10 43.00400 36.03649 35797 ft 471 kts 208°
2026-05-04 07:12 42.77977 35.85158 35795 ft 472 kts 207°
2026-05-04 07:12 42.72349 35.80539 35786 ft 472 kts 207°
2026-05-04 07:13 42.66715 35.75928 35797 ft 473 kts 207°
2026-05-04 07:13 42.61110 35.71360 35790 ft 473 kts 207°
2026-05-04 07:14 42.46972 35.59869 35788 ft 475 kts 207°
2026-05-04 07:15 42.41346 35.55292 35790 ft 475 kts 207°
2026-05-04 07:15 42.35667 35.50698 35792 ft 476 kts 207°
2026-05-04 07:16 42.29981 35.46111 35793 ft 477 kts 207°
2026-05-04 07:16 42.24434 35.41649 35789 ft 477 kts 207°
2026-05-04 07:17 42.18725 35.37067 35793 ft 478 kts 207°
2026-05-04 07:17 42.13039 35.32503 35797 ft 478 kts 207°
2026-05-04 07:18 42.07319 35.27924 35795 ft 479 kts 207°
2026-05-04 07:18 42.01618 35.23369 35795 ft 480 kts 207°
2026-05-04 07:19 41.95873 35.18785 35798 ft 480 kts 207°
2026-05-04 07:19 41.90116 35.14210 35802 ft 481 kts 207°
2026-05-04 07:20 41.84387 35.09658 35804 ft 482 kts 207°
2026-05-04 07:20 41.78614 35.05090 35808 ft 482 kts 207°
2026-05-04 07:22 41.55559 34.86916 35811 ft 481 kts 207°
2026-05-04 07:23 41.49783 34.82388 35812 ft 482 kts 207°
2026-05-04 07:23 41.43999 34.77869 35811 ft 482 kts 207°
2026-05-04 07:24 41.38252 34.73390 35816 ft 482 kts 207°
2026-05-04 07:24 41.32461 34.68889 35811 ft 482 kts 207°
2026-05-04 07:26 41.09286 34.50928 35814 ft 483 kts 207°
2026-05-04 07:27 41.03466 34.46445 35810 ft 483 kts 208°
2026-05-04 07:27 40.97646 34.41976 35810 ft 484 kts 208°
2026-05-04 07:28 40.91819 34.37514 35812 ft 484 kts 208°
2026-05-04 07:28 40.85997 34.33051 35812 ft 484 kts 208°
2026-05-04 07:29 40.80203 34.28614 35811 ft 484 kts 208°
2026-05-04 07:29 40.74370 34.24160 35810 ft 484 kts 208°
2026-05-04 07:30 40.68534 34.19719 35814 ft 484 kts 208°
2026-05-04 07:30 40.62739 34.15312 35815 ft 484 kts 208°
2026-05-04 07:31 40.56906 34.10892 35811 ft 484 kts 208°
2026-05-04 07:33 40.33614 33.93320 35799 ft 483 kts 208°
2026-05-04 07:33 40.27778 33.88939 35801 ft 484 kts 208°
2026-05-04 07:34 40.21927 33.84567 35802 ft 484 kts 208°
2026-05-04 07:34 40.16126 33.80222 35795 ft 484 kts 209°
2026-05-04 07:35 40.10289 33.75858 35801 ft 483 kts 209°
2026-05-04 07:35 40.04442 33.71510 35792 ft 484 kts 209°
2026-05-04 07:36 39.98585 33.67176 35793 ft 484 kts 208°
2026-05-04 07:38 39.78353 33.52203 33081 ft 463 kts 209°
2026-05-04 07:38 39.75568 33.50154 32023 ft 458 kts 209°
2026-05-04 07:38 39.72813 33.48131 31017 ft 452 kts 208°
2026-05-04 07:38 39.70083 33.46126 30058 ft 448 kts 209°
2026-05-04 07:39 39.67387 33.44141 28992 ft 443 kts 209°
2026-05-04 07:39 39.64765 33.42211 28007 ft 436 kts 209°
2026-05-04 07:39 39.62144 33.40287 27051 ft 429 kts 210°
2026-05-04 07:39 39.59563 33.38396 26147 ft 423 kts 210°
2026-05-04 07:40 39.57023 33.36542 25276 ft 416 kts 210°
2026-05-04 07:40 39.54515 33.34710 24438 ft 410 kts 210°
2026-05-04 07:40 39.52052 33.32910 23620 ft 405 kts 210°
2026-05-04 07:40 39.49606 33.31126 22720 ft 400 kts 210°
2026-05-04 07:41 39.47206 33.29374 21863 ft 393 kts 210°
2026-05-04 07:41 39.44877 33.27673 21071 ft 386 kts 210°
2026-05-04 07:41 39.42563 33.25983 20370 ft 376 kts 210°
2026-05-04 07:41 39.40363 33.24375 20170 ft 354 kts 210°
2026-05-04 07:42 39.38249 33.22832 19654 ft 343 kts 210°
2026-05-04 07:42 39.36186 33.21332 19050 ft 337 kts 210°
2026-05-04 07:42 39.34163 33.19865 18435 ft 332 kts 210°
2026-05-04 07:42 39.32161 33.18413 17817 ft 327 kts 210°
2026-05-04 07:43 39.30202 33.16995 17150 ft 321 kts 210°
2026-05-04 07:43 39.28303 33.15623 16518 ft 317 kts 210°
2026-05-04 07:43 39.26378 33.14228 15871 ft 313 kts 210°
2026-05-04 07:43 39.24495 33.12864 15257 ft 309 kts 210°
2026-05-04 07:44 39.22632 33.11516 14925 ft 305 kts 210°
2026-05-04 07:44 39.20755 33.10153 14948 ft 319 kts 210°
2026-05-04 07:44 39.18752 33.08699 14943 ft 338 kts 210°
2026-05-04 07:44 39.16689 33.07206 14943 ft 342 kts 210°
2026-05-04 07:45 39.14604 33.05702 14946 ft 344 kts 210°
2026-05-04 07:45 39.12518 33.04201 14946 ft 344 kts 210°
2026-05-04 07:45 39.10454 33.02716 14946 ft 345 kts 210°
2026-05-04 07:45 39.08361 33.01205 14941 ft 345 kts 210°
2026-05-04 07:46 39.06267 32.99694 14946 ft 345 kts 210°
2026-05-04 07:46 39.04166 32.98184 14944 ft 346 kts 210°
2026-05-04 07:46 39.02066 32.96675 14947 ft 346 kts 210°
2026-05-04 07:46 38.99964 32.95161 14945 ft 346 kts 210°
2026-05-04 07:47 38.97860 32.93649 14951 ft 346 kts 210°
2026-05-04 07:47 38.95754 32.92140 14949 ft 347 kts 210°
2026-05-04 07:47 38.93645 32.90629 14946 ft 347 kts 210°
2026-05-04 07:49 38.78891 32.80077 14948 ft 347 kts 210°
2026-05-04 07:49 38.76810 32.78590 14950 ft 347 kts 210°
2026-05-04 07:49 38.74700 32.77084 14950 ft 347 kts 210°
2026-05-04 07:50 38.72588 32.75575 14957 ft 348 kts 210°
2026-05-04 07:50 38.70473 32.74067 14958 ft 348 kts 210°
2026-05-04 07:50 38.68351 32.72559 14955 ft 349 kts 210°
2026-05-04 07:50 38.66943 32.71559 14954 ft 350 kts 210°
2026-05-04 07:51 38.64815 32.70051 14957 ft 350 kts 210°
2026-05-04 07:51 38.62682 32.68541 14961 ft 351 kts 210°
2026-05-04 07:51 38.60550 32.67029 14956 ft 351 kts 210°
2026-05-04 07:51 38.57719 32.65025 14962 ft 351 kts 210°
2026-05-04 07:52 38.55578 32.63509 14964 ft 351 kts 210°
2026-05-04 07:52 38.53438 32.61993 14964 ft 352 kts 210°
2026-05-04 07:52 38.51295 32.60475 14962 ft 353 kts 210°
2026-05-04 07:52 38.49873 32.59471 14966 ft 353 kts 210°
2026-05-04 07:53 38.47724 32.57956 14968 ft 353 kts 210°
2026-05-04 07:54 38.32636 32.47326 14980 ft 356 kts 210°
2026-05-04 07:55 38.30469 32.45801 14979 ft 357 kts 210°
2026-05-04 07:55 38.28293 32.44273 14892 ft 357 kts 210°
2026-05-04 07:55 38.26123 32.42746 14801 ft 356 kts 210°
2026-05-04 07:55 38.23953 32.41221 14802 ft 356 kts 210°
2026-05-04 07:56 38.21781 32.39702 14804 ft 357 kts 210°
2026-05-04 07:56 38.19605 32.38183 14805 ft 357 kts 210°
2026-05-04 07:56 38.17429 32.36665 14802 ft 357 kts 210°
2026-05-04 07:56 38.15284 32.35166 14804 ft 357 kts 210°
2026-05-04 07:57 38.13108 32.33646 14802 ft 357 kts 210°
2026-05-04 07:57 38.10935 32.32133 14755 ft 355 kts 210°
2026-05-04 07:57 38.08774 32.30629 14447 ft 354 kts 210°
2026-05-04 07:57 38.06615 32.29121 14199 ft 354 kts 210°
2026-05-04 07:58 38.04460 32.27616 13955 ft 354 kts 210°
2026-05-04 07:58 38.02303 32.26115 13710 ft 352 kts 210°
2026-05-04 07:58 38.00158 32.24623 13450 ft 351 kts 210°
2026-05-04 07:58 37.98051 32.23158 13177 ft 350 kts 210°
2026-05-04 07:59 37.95892 32.21661 12907 ft 348 kts 210°
2026-05-04 07:59 37.93801 32.20211 12641 ft 347 kts 210°
2026-05-04 07:59 37.91692 32.18746 12377 ft 346 kts 211°
2026-05-04 07:59 37.89587 32.17283 12106 ft 344 kts 211°
2026-05-04 08:00 37.87499 32.15830 11843 ft 342 kts 211°
2026-05-04 08:00 37.85416 32.14383 11578 ft 341 kts 211°
2026-05-04 08:00 37.83339 32.12947 11319 ft 339 kts 210°
2026-05-04 08:02 37.68985 32.03033 11575 ft 340 kts 210°
2026-05-04 08:02 37.66901 32.01596 11907 ft 343 kts 210°
2026-05-04 08:02 37.64803 32.00152 11978 ft 344 kts 210°
2026-05-04 08:03 37.62734 31.98728 11981 ft 344 kts 210°
2026-05-04 08:03 37.60639 31.97291 11981 ft 344 kts 210°
2026-05-04 08:03 37.58534 31.95848 11983 ft 344 kts 210°
2026-05-04 08:03 37.56437 31.94409 11982 ft 344 kts 210°
2026-05-04 08:04 37.54335 31.92964 11985 ft 344 kts 210°
2026-05-04 08:04 37.52385 31.91628 11986 ft 345 kts 210°
2026-05-04 08:04 37.50446 31.90300 11984 ft 345 kts 210°
2026-05-04 08:04 37.48366 31.88877 11987 ft 345 kts 210°
2026-05-04 08:05 37.46255 31.87433 11985 ft 345 kts 210°
2026-05-04 08:05 37.44176 31.86009 11988 ft 345 kts 210°
2026-05-04 08:05 37.42206 31.84659 11987 ft 346 kts 210°
2026-05-04 08:05 37.40087 31.83212 11987 ft 346 kts 210°
2026-05-04 08:06 37.37911 31.81725 11987 ft 364 kts 210°
2026-05-04 08:06 37.35670 31.80194 11985 ft 368 kts 210°
2026-05-04 08:06 37.33417 31.78659 11985 ft 369 kts 210°
2026-05-04 08:06 37.31158 31.77124 11987 ft 369 kts 210°
2026-05-04 08:08 37.15370 31.66399 11976 ft 369 kts 210°
2026-05-04 08:08 37.13114 31.64872 11979 ft 369 kts 210°
2026-05-04 08:10 36.98286 31.54849 9032 ft 281 kts 210°
2026-05-04 08:11 36.96565 31.53688 8405 ft 280 kts 210°
2026-05-04 08:11 36.93164 31.51398 7128 ft 275 kts 210°
2026-05-04 08:11 36.91507 31.50284 6506 ft 273 kts 209°
2026-05-04 08:12 36.89836 31.49163 5883 ft 272 kts 209°
2026-05-04 08:12 36.88183 31.48054 5281 ft 269 kts 209°
2026-05-04 08:12 36.86553 31.46957 5018 ft 266 kts 209°
2026-05-04 08:12 36.84915 31.45853 4977 ft 268 kts 210°
2026-05-04 08:13 36.83270 31.44746 4980 ft 269 kts 209°
2026-05-04 08:13 36.81619 31.43638 4972 ft 268 kts 209°
2026-05-04 08:13 36.79972 31.42536 4971 ft 268 kts 209°
2026-05-04 08:13 36.78347 31.41449 4978 ft 268 kts 209°
2026-05-04 08:14 36.76701 31.40349 4975 ft 268 kts 210°
2026-05-04 08:14 36.75058 31.39252 4986 ft 268 kts 209°
2026-05-04 08:14 36.73436 31.38105 4979 ft 267 kts 218°
2026-05-04 08:16 36.74340 31.24561 4539 ft 228 kts 299°
2026-05-04 08:16 36.75040 31.22793 4210 ft 226 kts 300°
2026-05-04 08:16 36.75728 31.21051 3893 ft 222 kts 299°
2026-05-04 08:17 36.76407 31.19330 3588 ft 220 kts 300°
2026-05-04 08:17 36.77077 31.17636 3293 ft 216 kts 300°
2026-05-04 08:17 36.77737 31.15966 3042 ft 212 kts 299°
2026-05-04 08:17 36.78389 31.14311 2993 ft 213 kts 299°
2026-05-04 08:19 36.82040 31.02403 3031 ft 226 kts 258°
2026-05-04 08:19 36.81271 31.00660 3032 ft 236 kts 232°
2026-05-04 08:20 36.79983 30.99347 3033 ft 241 kts 223°
2026-05-04 08:20 36.78693 30.98032 3032 ft 238 kts 227°
2026-05-04 08:20 36.77512 30.96604 3032 ft 235 kts 233°
2026-05-04 08:20 36.76457 30.95093 3035 ft 233 kts 238°
2026-05-04 08:21 36.75502 30.93482 3033 ft 226 kts 243°
2026-05-04 08:21 36.74702 30.91898 3032 ft 206 kts 249°
2026-05-04 08:21 36.74052 30.90365 3034 ft 197 kts 252°
2026-05-04 08:21 36.73505 30.88809 3035 ft 195 kts 256°
2026-05-04 08:22 36.73047 30.87233 3036 ft 193 kts 259°
2026-05-04 08:22 36.72677 30.85642 3036 ft 190 kts 264°
2026-05-04 08:24 36.76071 30.77394 2686 ft 172 kts 355°
2026-05-04 08:24 36.77212 30.77519 2461 ft 157 kts
2026-05-04 08:24 36.78252 30.77661 2260 ft 142 kts
2026-05-04 08:24 36.79189 30.77788 2081 ft 131 kts 360°
2026-05-04 08:25 36.80070 30.77907 1906 ft 124 kts
2026-05-04 08:25 36.80905 30.78020 1743 ft 121 kts
2026-05-04 08:25 36.81728 30.78132 1578 ft 119 kts
2026-05-04 08:25 36.82545 30.78243 1420 ft 118 kts
2026-05-04 08:26 36.83360 30.78354 1261 ft 118 kts
2026-05-04 08:27 36.89173 30.79157 194 ft 105 kts 359°
2026-05-04 08:28 36.89651 30.79210 201 ft 48 kts
2026-05-04 08:28 36.89978 30.79248 189 ft 47 kts
2026-05-04 08:28 36.90278 30.79312 189 ft 37 kts 16°
2026-05-04 08:28 36.90416 30.79431 191 ft 0 kts 38°
2026-05-04 08:29 36.90432 30.79446 199 ft 8 kts 38°
2026-05-04 08:29 36.90455 30.79469 199 ft 0 kts 38°
2026-05-04 08:31 36.90053 30.79492 193 ft 23 kts 186°
2026-05-04 08:33 36.89737 30.79737 192 ft 0 kts 15°